[[{"header":{"parameterUnit":"m.s-1","parameterCategory":1,"la1":30.2991,"la2":30.254,"lo1":-89.0895,"lo2":-89.0444,"dy":0.0017,"dx":0.0017,"nx":28,"ny":28,"refTime":"2024-02-18T03:00:00:Z","depth":0,"parameterNumber":2,"parameterNumberName":"U-component_of_WINDS"},"data":[0,0,0,0,0,0,0,0,0,0,0,0,0,0,0,0,0,0,0,0,0,0,0,0,0,0,0,0,0,0,0,0,0,0,0,0,0,0,0,0,0,0,0,0,0,0,0,0,0,0,0,0,0,0,0,0,0,0,-1.4779,-1.478,0,-1.4868,-1.4869,-1.487,-1.4834,-1.4832,-1.483,-1.4828,-1.4922,-1.4926,-1.4931,0,0,0,0,0,0,0,0,0,0,0,0,0,-1.4577,-1.458,-1.4778,-1.478,-1.4781,-1.4868,-1.4869,-1.4871,-1.4834,-1.4832,-1.4829,-1.4827,-1.4921,-1.4926,-1.4931,0,0,0,0,0,0,0,0,0,0,0,0,0,-1.4665,-1.4582,-1.4778,-1.4773,-1.4773,-1.4868,-1.4869,-1.4871,-1.4835,-1.4832,-1.4828,-1.4825,-1.4919,-1.4925,-1.4932,-1.5038,0,0,-1.4953,-1.4956,0,0,0,0,0,0,0,0,-1.466,-1.4673,-1.4773,-1.4774,-1.4774,-1.4837,-1.4833,-1.4927,-1.4836,-1.4812,-1.4828,-1.4824,-1.4896,-1.4905,-1.4929,-1.5042,-1.5046,-1.4953,-1.4957,-1.496,-1.4962,0,0,0,0,0,0,0,-1.4654,-1.4669,-1.4814,-1.4774,-1.4775,-1.4767,-1.4776,-1.485,-1.4871,-1.4814,-1.4811,-1.4822,-1.4896,-1.4922,-1.4931,-1.5047,-1.4953,-1.4959,-1.4963,-1.4966,-1.5251,-1.5254,0,0,0,0,0,0,-1.4648,-1.4664,-1.4811,-1.4817,-1.4708,-1.4773,-1.4783,-1.482,-1.487,-1.4874,-1.4825,-1.482,-1.4912,-1.4923,-1.4934,-1.5061,-1.496,-1.4967,-1.497,-1.5248,-1.5252,-1.5256,0,0,0,0,0,0,-1.4643,-1.4661,-1.4808,-1.474,-1.4758,-1.478,-1.4821,-1.4823,-1.4849,-1.4878,-1.4882,-1.4848,-1.491,-1.4924,-1.5012,-1.5064,-1.497,-1.4976,-1.5243,-1.5249,-1.5254,-1.5316,0,0,0,0,0,0,-1.4638,-1.466,-1.47,-1.4741,-1.4761,-1.4884,-1.4825,-1.4827,-1.4861,-1.4856,-1.4901,-1.4905,-1.4909,-1.5002,-1.5018,-1.5071,-1.4981,-1.5239,-1.5246,-1.5252,-1.5309,-1.5322,-1.5334,0,0,0,0,0,-1.4631,-1.4715,-1.4702,-1.472,-1.4812,-1.4887,-1.4899,-1.4901,-1.4865,-1.4906,-1.4924,-1.4904,-1.5055,-1.5011,-1.503,-1.5085,-1.5236,-1.5244,-1.5252,-1.5304,-1.532,-1.5333,0,0,0,0,0,0,-1.4681,-1.472,-1.4707,-1.4806,-1.4844,-1.4881,-1.4933,-1.4918,-1.4967,-1.496,-1.496,-1.4971,-1.5061,-1.5081,-1.5032,-1.5189,-1.514,-1.5152,-1.5173,-1.5189,-1.5201,-1.5195,-1.4987,0,0,0,0,0,-1.4703,-1.4761,-1.4792,-1.4877,-1.4896,-1.4911,-1.4944,-1.4941,-1.498,-1.4996,-1.5021,-1.506,-1.5116,-1.5153,-1.5206,-1.5311,-1.532,-1.5358,-1.537,-1.538,-1.5391,-1.5448,-1.5465,-1.5282,-1.5282,-1.5281,0,0,-1.4751,-1.4779,-1.4816,-1.4887,-1.4916,-1.4975,-1.4925,-1.499,-1.5034,-1.5006,-1.509,-1.511,-1.5153,-1.5249,-1.5293,-1.5269,-1.5443,-1.539,-1.5398,-1.5404,-1.5458,-1.5475,-1.5491,-1.5287,-1.5286,-1.5285,0,0,-1.4869,-1.4895,-1.4969,-1.4998,-1.5041,-1.505,-1.5068,-1.5107,-1.5119,-1.5202,-1.5182,-1.5235,-1.5331,-1.5363,-1.5392,-1.5519,-1.5502,-1.5536,-1.5601,-1.5656,-1.5671,-1.5684,-1.5729,-1.5746,-1.5546,-1.5546,-1.5546,0,-1.4923,-1.5011,-1.5009,-1.5076,-1.5108,-1.5083,-1.5158,-1.5186,-1.5245,-1.5268,-1.524,-1.536,-1.5387,-1.5491,-1.5521,-1.5545,-1.5565,-1.5532,-1.5669,-1.5681,-1.5693,-1.5737,-1.5754,-1.555,-1.555,-1.5549,-1.5549,0,-1.5076,-1.5137,-1.5191,-1.5248,-1.5286,-1.5356,-1.5364,-1.5403,-1.5397,-1.5409,-1.5494,-1.5526,-1.5585,-1.5608,-1.5604,-1.5711,-1.5695,-1.5668,-1.5618,-1.5715,-1.5756,-1.5773,-1.5556,-1.5555,-1.5553,-1.5552,0,0,-1.523,-1.5282,-1.5303,-1.5327,-1.5372,-1.542,-1.5488,-1.5545,-1.5578,-1.5619,-1.5677,-1.5758,-1.5733,-1.5765,-1.5763,-1.5811,-1.591,-1.5778,-1.5779,-1.5803,-1.6031,-1.6052,-1.6072,-1.5898,-1.5901,-1.5904,-1.6027,0,-1.5352,-1.5472,-1.5471,-1.5583,-1.564,-1.5616,-1.5675,-1.5709,-1.5722,-1.5772,-1.5786,-1.5844,-1.5805,-1.5825,-1.5871,-1.5888,-1.5956,-1.5879,-1.5953,-1.5956,-1.5945,-1.6093,-1.6116,-1.6232,-1.6043,-1.6046,-1.6048,0,-1.5511,-1.5556,-1.5673,-1.5708,-1.5732,-1.5786,-1.5837,-1.5884,-1.5922,-1.5928,-1.5963,-1.5953,-1.6023,-1.5969,-1.6066,-1.6013,-1.6043,-1.6055,-1.606,-1.6069,-1.6009,-1.6107,-1.6269,-1.6286,-1.6073,-1.6071,-1.607,0,-1.5613,-1.5702,-1.5784,-1.5806,-1.5849,-1.5887,-1.5907,-1.5941,-1.5975,-1.6019,-1.6041,-1.6093,-1.6122,-1.6163,-1.6167,-1.6127,-1.6264,-1.6211,-1.6271,-1.6271,-1.6303,-1.6302,-1.6473,-1.632,-1.6319,-1.6319,-1.6319,0,-1.5751,-1.5823,-1.583,-1.5881,-1.5961,-1.5958,-1.6038,-1.6054,-1.6085,-1.6138,-1.612,-1.617,-1.6172,-1.6223,-1.6226,-1.6306,-1.6319,-1.6326,-1.6326,-1.6329,-1.6328,-1.635,-1.6342,-1.6324,-1.6323,-1.6322,-1.6321,0,-1.588,-1.5887,-1.5974,-1.6007,-1.6017,-1.6075,-1.6103,-1.6151,-1.616,-1.6227,-1.6243,-1.6259,-1.6318,-1.6325,-1.6395,-1.6397,-1.6493,-1.6484,-1.648,-1.648,-1.654,-1.6535,-1.6733,-1.6759,-1.6587,-1.6589,-1.659,0,-1.5968,-1.6023,-1.6061,-1.6095,-1.6116,-1.6171,-1.6205,-1.6203,-1.6239,-1.6285,-1.6327,-1.6384,-1.6431,-1.6526,-1.6544,-1.6597,-1.659,-1.6656,-1.6598,-1.6598,-1.6592,-1.659,-1.6595,-1.6668,-1.667,-1.6671,-1.6672,0,-1.6124,-1.6124,-1.6173,-1.6223,-1.6263,-1.6303,-1.634,-1.6369,-1.6372,-1.6413,-1.6473,-1.6508,-1.6578,-1.6635,-1.6687,-1.6707,-1.6691,-1.669,-1.6707,-1.6711,-1.6707,-1.6711,-1.6512,-1.6686,-1.6685,-1.6684,-1.6683,-1.6682,-1.6236,-1.6284,-1.6317,-1.6372,-1.6399,-1.6434,-1.648,-1.6495,-1.6544,-1.6601,-1.6597,-1.6663,-1.6697,-1.6765,-1.6789,-1.684,-1.6819,-1.6843,-1.685,-1.6856,-1.6863,-1.6697,-1.685,-1.6849,-1.6849,-1.6849,-1.6848,0,-1.6392,-1.6412,-1.6462,-1.6514,-1.6557,-1.6535,-1.6574,-1.6612,-1.667,-1.6704,-1.6748,-1.6817,-1.6871,-1.6892,-1.6946,-1.6983,-1.6977,-1.6997,-1.6996,-1.7001,-1.6879,-1.6859,-1.7002,-1.7002,-1.7002,-1.7001,-1.7001,-1.7001,-1.6478,-1.6558,-1.6562,-1.6654,-1.6674,-1.6738,-1.6762,-1.6794,-1.682,-1.6897,-1.6942,-1.6955,-1.6983,-1.7038,-1.7087,-1.7092,-1.7113,-1.7137,-1.7139,-1.7025,-1.7009,-1.6995,-1.6976,-1.7141,-1.7141,-1.7256,-1.7257,-1.7258]},{"header":{"parameterUnit":"m.s-1","parameterCategory":1,"la1":30.2991,"la2":30.254,"lo1":-89.0895,"lo2":-89.0444,"dy":0.0017,"dx":0.0017,"nx":28,"ny":28,"refTime":"2024-02-18T03:00:00:Z","depth":0,"parameterNumber":3,"parameterNumberName":"V-component_of_WINDS"},"data":[0,0,0,0,0,0,0,0,0,0,0,0,0,0,0,0,0,0,0,0,0,0,0,0,0,0,0,0,0,0,0,0,0,0,0,0,0,0,0,0,0,0,0,0,0,0,0,0,0,0,0,0,0,0,0,0,0,0,-6.446,-6.4461,0,-6.4565,-6.4567,-6.4568,-6.4494,-6.449,-6.4487,-6.4484,-6.4587,-6.4593,-6.4598,0,0,0,0,0,0,0,0,0,0,0,0,0,-6.4187,-6.4193,-6.446,-6.4461,-6.4462,-6.4565,-6.4567,-6.4568,-6.4494,-6.449,-6.4486,-6.4482,-6.4585,-6.4592,-6.4599,0,0,0,0,0,0,0,0,0,0,0,0,0,-6.43,-6.4194,-6.4459,-6.4438,-6.4437,-6.4565,-6.4567,-6.4568,-6.4495,-6.449,-6.4485,-6.448,-6.4583,-6.4591,-6.46,-6.4753,0,0,-6.4627,-6.463,0,0,0,0,0,0,0,0,-6.4294,-6.431,-6.444,-6.444,-6.4439,-6.4511,-6.4508,-6.463,-6.4496,-6.4473,-6.4484,-6.4478,-6.4566,-6.4575,-6.4606,-6.4758,-6.4762,-6.4627,-6.4633,-6.4637,-6.4639,0,0,0,0,0,0,0,-6.4286,-6.4305,-6.4501,-6.4442,-6.4441,-6.4421,-6.4431,-6.4531,-6.4546,-6.4475,-6.4469,-6.4483,-6.4564,-6.4598,-6.4608,-6.4764,-6.4627,-6.4635,-6.464,-6.4644,-6.5044,-6.5049,0,0,0,0,0,0,-6.4281,-6.4299,-6.4498,-6.4504,-6.4353,-6.443,-6.4442,-6.4493,-6.4544,-6.4547,-6.4487,-6.4479,-6.4585,-6.4598,-6.4611,-6.4793,-6.4636,-6.4645,-6.465,-6.5039,-6.5045,-6.5051,0,0,0,0,0,0,-6.4276,-6.43,-6.4494,-6.4401,-6.4424,-6.444,-6.4498,-6.4498,-6.4531,-6.4554,-6.4556,-6.4519,-6.4582,-6.4599,-6.4718,-6.4795,-6.4649,-6.4657,-6.5032,-6.5041,-6.5048,-6.5158,0,0,0,0,0,0,-6.4268,-6.4298,-6.4358,-6.4403,-6.4429,-6.4602,-6.4503,-6.4503,-6.4547,-6.4538,-6.4585,-6.4587,-6.4579,-6.4706,-6.4727,-6.4805,-6.4663,-6.5026,-6.5036,-6.5046,-6.5147,-6.5169,-6.5187,0,0,0,0,0,-6.4259,-6.4384,-6.4362,-6.4386,-6.4505,-6.4606,-6.4621,-6.4611,-6.4554,-6.4613,-6.4627,-6.4586,-6.4783,-6.4718,-6.4742,-6.4823,-6.5021,-6.5033,-6.5045,-6.5138,-6.5164,-6.5186,0,0,0,0,0,0,-6.4347,-6.439,-6.4365,-6.4509,-6.4555,-6.4593,-6.4668,-6.4639,-6.47,-6.4688,-6.4671,-6.4682,-6.4807,-6.4827,-6.4754,-6.4973,-6.4893,-6.491,-6.4956,-6.4981,-6.5,-6.4992,-6.4671,0,0,0,0,0,-6.4384,-6.4464,-6.4496,-6.462,-6.4644,-6.4653,-6.4696,-6.4684,-6.473,-6.4748,-6.4771,-6.4816,-6.4887,-6.4935,-6.5002,-6.5149,-6.5157,-6.5217,-6.5236,-6.5252,-6.5268,-6.5345,-6.5371,-6.5091,-6.5091,-6.5091,0,0,-6.446,-6.4493,-6.4545,-6.4639,-6.4673,-6.4754,-6.4669,-6.476,-6.4819,-6.4761,-6.4876,-6.4894,-6.4942,-6.5076,-6.5136,-6.5096,-6.5347,-6.5268,-6.5281,-6.5287,-6.536,-6.5387,-6.541,-6.5099,-6.5098,-6.5096,0,0,-6.464,-6.4674,-6.478,-6.4816,-6.4868,-6.4872,-6.4898,-6.4941,-6.4951,-6.5066,-6.5024,-6.5093,-6.5218,-6.5253,-6.5287,-6.5479,-6.5442,-6.5501,-6.5604,-6.5679,-6.5701,-6.5721,-6.5788,-6.5812,-6.5516,-6.5516,-6.5516,0,-6.4727,-6.485,-6.4838,-6.4932,-6.4973,-6.4925,-6.5031,-6.5066,-6.5137,-6.5166,-6.5121,-6.5275,-6.5304,-6.5444,-6.5491,-6.5521,-6.5547,-6.5496,-6.57,-6.5719,-6.5737,-6.58,-6.5826,-6.5523,-6.5522,-6.5521,-6.5521,0,-6.4954,-6.504,-6.5119,-6.5191,-6.5241,-6.534,-6.5341,-6.5393,-6.5375,-6.5384,-6.55,-6.5533,-6.5605,-6.5637,-6.5621,-6.5775,-6.5749,-6.5702,-6.5621,-6.5771,-6.583,-6.5854,-6.5533,-6.553,-6.5528,-6.5526,0,0,-6.5194,-6.5257,-6.5286,-6.5317,-6.5371,-6.5436,-6.5531,-6.5603,-6.5648,-6.5698,-6.5776,-6.5882,-6.5838,-6.5877,-6.5864,-6.5931,-6.6078,-6.5876,-6.5876,-6.5911,-6.6248,-6.6282,-6.6311,-6.6054,-6.6059,-6.6063,-6.6243,0,-6.5376,-6.5546,-6.5536,-6.5694,-6.5772,-6.5727,-6.581,-6.585,-6.586,-6.5926,-6.5935,-6.601,-6.5948,-6.5971,-6.6035,-6.6047,-6.6145,-6.6034,-6.6125,-6.6129,-6.6115,-6.6342,-6.6379,-6.6549,-6.6267,-6.627,-6.6273,0,-6.5612,-6.5672,-6.5838,-6.5878,-6.591,-6.5986,-6.605,-6.6114,-6.6158,-6.616,-6.6203,-6.6178,-6.6272,-6.6189,-6.6317,-6.6241,-6.6277,-6.6289,-6.6295,-6.6303,-6.621,-6.6355,-6.6602,-6.6628,-6.631,-6.6307,-6.6304,0,-6.577,-6.5891,-6.6005,-6.6033,-6.6084,-6.6137,-6.616,-6.6199,-6.6243,-6.6298,-6.6325,-6.639,-6.6426,-6.6475,-6.6468,-6.6408,-6.6598,-6.6514,-6.6601,-6.6601,-6.6643,-6.664,-6.6898,-6.6667,-6.6667,-6.6666,-6.6666,0,-6.5974,-6.6077,-6.6077,-6.6147,-6.626,-6.6247,-6.6359,-6.6375,-6.641,-6.6481,-6.6445,-6.6512,-6.6498,-6.6564,-6.6559,-6.6665,-6.6681,-6.6684,-6.6681,-6.6687,-6.6687,-6.6711,-6.6699,-6.6673,-6.6672,-6.667,-6.6669,0,-6.6169,-6.6173,-6.6295,-6.6332,-6.6344,-6.6426,-6.6456,-6.6522,-6.6528,-6.6618,-6.6638,-6.6647,-6.6723,-6.6721,-6.6806,-6.6802,-6.6932,-6.6916,-6.6918,-6.6915,-6.7001,-6.6992,-6.7283,-6.732,-6.7065,-6.7068,-6.707,0,-6.6299,-6.6378,-6.6424,-6.6469,-6.6496,-6.657,-6.6614,-6.6603,-6.665,-6.6705,-6.6763,-6.6836,-6.6893,-6.7016,-6.7029,-6.7093,-6.7078,-6.7175,-6.7087,-6.709,-6.7078,-6.7073,-6.708,-6.7192,-6.7195,-6.7197,-6.7199,0,-6.653,-6.6527,-6.6594,-6.666,-6.6714,-6.6766,-6.6813,-6.6851,-6.6845,-6.6899,-6.6977,-6.7021,-6.7109,-6.718,-6.7242,-6.7262,-6.723,-6.7227,-6.725,-6.7257,-6.7255,-6.7256,-6.6965,-6.722,-6.7218,-6.7217,-6.7216,-6.7215,-6.6696,-6.6763,-6.6805,-6.6879,-6.6914,-6.6958,-6.7021,-6.7035,-6.71,-6.7172,-6.716,-6.7247,-6.7285,-6.7365,-6.7391,-6.7457,-6.7422,-6.7456,-6.7465,-6.7473,-6.7482,-6.7245,-6.7468,-6.7468,-6.7467,-6.7467,-6.7466,0,-6.6923,-6.6948,-6.7017,-6.7084,-6.7142,-6.7107,-6.7156,-6.7206,-6.7284,-6.7323,-6.7381,-6.7469,-6.7538,-6.7556,-6.7621,-6.767,-6.7656,-6.7687,-6.7684,-6.7688,-6.751,-6.7483,-6.7697,-6.7697,-6.7697,-6.7697,-6.7697,-6.7697,-6.7049,-6.716,-6.7162,-6.7289,-6.7312,-6.7398,-6.7429,-6.7469,-6.75,-6.7601,-6.7658,-6.767,-6.77,-6.7768,-6.7828,-6.7831,-6.7857,-6.7894,-6.7891,-6.7724,-6.7701,-6.7679,-6.7654,-6.79,-6.79,-6.8063,-6.8065,-6.8066]}]]